SCP
0 0 0 0 0 0 0 0 0 0 0 0 0 0 0 0 0 0 0 0 0 0 0 0 0 0 0 0 0 0 0 0 0 0 0 0 0 0 0 0 0 0 0
0 0 0 0 0 0 0 0 0 0 0 0 0 0 0 0 0 0 0 0 0 0 0 0 0 0 0 0 0 0 0 0 0 0 0 0 0 0 0 0 0 0 0
0 0 0 0 0 0 0 0 0 0 0 0 0 0 0 0 0 0 0 0 0 0 0 0 0 0 0 0 0 0 0 0 0 0 0 0 0 0 0 0 0 0 0
0 0 0 0 0 0 0 0 0 0 0 0 0 0 0 0 0 0 0 0 0 0 0 0 0 0 0 0 0 0 0 0 0 0 0 0 0 0 0 0 0 0 0
0 0 0 0 0 0 0 0 0 0 0 0 0 0 0 0 0 0 0 0 0 0 0 0 0 0 0 0 0 0 0 0 0 0 0 0 0 0 0 0 0 0 0
0 0 0 0 0 0 0 0 0 0 0 0 0 1 0 0 0 0 0 0 0 0 0 0 0 0 0 0 0 0 0 0 0 0 0 0 0 0 0 0 0 0 0
0 0 0 0 0 0 0 0 0 0 0 0 0 1 1 1 1 0 0 0 0 0 0 0 0 0 0 0 0 0 0 0 0 0 0 0 0 0 0 0 0 0 0
0 0 0 0 0 0 0 0 0 0 0 0 0 0 1 1 1 1 1 1 1 0 0 0 0 0 0 0 0 0 0 0 0 0 0 0 0 0 0 0 0 0 0
0 0 0 0 0 0 0 0 0 0 0 0 0 0 0 1 1 1 1 1 1 1 1 1 0 0 0 0 0 0 0 0 0 0 0 0 0 0 0 0 0 0 0
0 0 0 0 0 0 0 0 0 0 0 0 0 0 0 0 1 1 1 1 1 1 1 1 1 0 0 0 0 0 0 0 0 0 0 0 0 0 0 0 0 0 0
0 0 0 0 0 0 0 0 0 0 0 0 0 0 0 0 0 0 1 1 1 1 1 1 1 0 0 0 0 0 0 0 0 0 0 0 0 0 0 0 0 0 0
0 0 0 0 0 0 0 0 0 0 0 0 0 0 0 0 0 0 0 0 1 1 1 1 1 0 0 0 0 0 0 0 0 0 0 0 0 0 0 0 0 0 0
0 0 0 0 0 0 0 0 0 0 0 0 0 0 0 0 0 0 0 0 1 1 1 1 0 0 0 0 0 0 0 0 0 0 0 0 0 0 0 0 0 0 0
-0 0 0 0 0 0 0 0 0 0 0 0 0 0 0 0 0 0 0 0 1 1 1 1 0 0 0 0 0 0 0 0 0 0 0 0 0 0 0 0 0 0 0
-0 0 0 0 0 0 0 0 0 0 0 0 0 0 0 0 0 0 0 1 1 1 1 0 0 0 0 0 0 0 0 0 0 0 0 0 0 0 0 0 0 0 0
0 0 0 0 0 0 0 0 0 0 0 0 0 0 0 0 0 0 0 0 0 0 0 0 0 0 0 0 0 0 0 0 0 0 0 0 0 0 0 0 0 0 0
0 0 0 0 0 0 0 0 0 0 0 0 0 0 0 0 0 0 0 0 0 0 0 0 0 0 0 0 0 0 0 0 0 0 0 0 0 0 0 0 0 0 0
0 0 0 0 0 0 0 0 0 0 0 0 0 0 0 0 0 0 0 0 0 0 0 0 0 0 0 0 0 0 0 0 0 0 0 0 0 0 0 0 0 0 0
0 0 0 0 0 0 0 0 0 0 0 0 0 0 0 0 0 0 0 0 0 0 0 0 0 0 0 0 0 0 0 0 0 0 0 0 0 0 0 0 0 0 0
0 0 0 0 0 0 0 0 0 0 0 0 0 0 0 0 0 0 0 0 0 0 0 0 0 0 0 0 0 0 0 0 0 0 0 0 0 0 0 0 0 0 0
0 0 0 0 0 0 0 0 0 0 0 0 0 0 0 0 0 0 0 0 0 0 0 0 0 0 0 0 0 0 0 0 0 0 0 0 0 0 0 0 0 0 0
0 0 0 0 0 0 0 0 0 0 0 0 0 0 0 0 0 0 0 0 0 0 0 0 0 0 0 0 0 0 0 0 0 0 0 0 0 0 0 0 0 0 0
0 0 0 0 0 0 0 0 0 0 0 0 0 0 0 0 0 0 0 0 0 0 0 0 0 0 0 0 0 0 0 0 0 0 0 0 0 0 0 0 0 0 0
0 0 0 0 0 0 0 0 0 0 0 0 0 0 0 0 0 0 0 0 0 0 0 0 0 0 0 0 0 0 0 0 0 0 0 0 0 0 0 0 0 0 0
0 0 0 0 0 0 0 0 0 0 0 0 0 0 0 0 0 0 0 0 0 0 0 0 0 0 0 0 0 0 0 0 0 0 0 0 0 0 0 0 0 0 0
0 0 0 0 0 0 0 0 0 0 0 0 0 0 0 0 0 0 0 0 0 0 0 0 0 0 0 0 0 0 0 0 0 0 0 0 0 0 0 0 0 0 0
Wind_Speed
16 14 13 14 15 16 17 18 18 17 14 12 12 11 11 10 10 10 12 14 13 14 13 10 11 10 10 11 11 10 10 8 6 5 5 6 8 9 8 7 7 8 8
16 15 14 14 16 17 18 19 19 19 18 14 13 11 11 10 11 10 12 15 15 15 13 14 11 11 10 12 12 11 8 7 8 7 5 5 6 8 9 8 8 9 8
19 17 16 16 16 18 19 17 20 20 20 19 13 10 10 9 10 13 13 15 16 16 15 16 14 13 12 11 13 13 14 10 9 9 7 6 6 3 5 9 8 9 8
20 19 18 17 17 18 18 19 20 21 20 19 16 17 15 15 17 13 12 14 16 17 17 17 16 15 13 13 14 14 12 13 10 9 10 10 6 6 4 5 7 9 10
20 20 19 18 18 17 16 17 19 20 20 21 21 20 18 16 13 14 15 15 14 17 18 17 16 16 14 15 15 14 14 12 12 10 8 10 10 11 8 8 6 7 8
19 20 19 17 17 16 15 16 18 20 20 22 22 22 23 20 18 17 15 14 12 13 18 18 17 16 15 16 16 15 17 14 15 12 11 10 9 10 11 12 11 9 8
18 18 18 17 16 16 16 17 19 20 20 22 23 23 24 23 23 19 17 16 13 13 17 17 17 16 16 16 15 15 16 17 17 15 12 12 12 10 10 11 11 11 8
16 16 17 16 16 16 16 17 18 20 20 21 22 22 23 18 16 20 17 17 14 15 17 18 17 18 17 16 15 13 15 14 16 17 16 12 12 11 11 11 10 10 9
16 16 16 15 15 14 15 16 17 18 19 20 21 21 22 21 20 19 19 16 15 14 17 17 17 18 17 17 16 13 15 14 15 15 16 14 12 11 11 10 11 11 12
14 15 14 14 13 13 13 14 16 17 18 18 18 16 20 21 20 18 19 18 18 17 16 16 17 17 16 16 16 13 14 15 14 12 14 15 12 11 10 10 10 11 12
13 13 12 11 11 11 11 12 13 15 15 16 17 18 18 19 19 18 19 18 17 17 17 16 16 16 16 16 15 15 14 16 15 14 15 16 14 11 10 10 10 10 11
12 12 11 10 10 10 10 11 12 13 14 15 15 17 17 17 18 19 19 18 17 16 16 16 16 16 16 16 16 16 16 16 16 16 15 16 12 15 12 10 12 11 11
11 11 10 9 10 10 10 10 11 12 12 13 14 15 16 17 18 18 17 17 16 16 15 15 16 16 16 16 16 16 16 16 16 15 16 16 15 15 12 12 11 9 8
12 12 11 11 10 9 9 10 10 10 10 11 13 14 15 15 16 16 15 15 15 15 15 15 15 15 14 15 14 14 15 15 14 14 14 14 14 14 13 11 11 9 9
13 13 12 12 11 10 10 9 10 9 9 10 12 13 12 12 13 13 13 13 13 13 12 12 12 12 12 11 12 13 13 13 13 12 12 12 12 13 11 9 9 9 8
14 13 13 12 12 11 10 9 10 9 8 10 11 11 10 10 11 11 10 10 11 11 10 11 11 11 9 11 14 13 11 11 12 11 10 10 10 12 13 13 13 11 10
13 13 13 13 12 12 10 11 10 7 7 9 9 8 9 9 10 9 9 10 11 10 10 11 11 11 11 13 14 15 11 11 10 10 9 7 6 9 8 9 11 10 11
14 14 13 14 13 12 11 9 7 6 7 7 8 7 8 9 8 8 10 10 8 9 9 10 10 9 9 12 13 14 12 10 9 9 8 8 7 7 7 6 6 5 5
13 13 13 14 14 12 10 7 6 6 6 8 8 7 8 8 8 9 10 9 8 8 8 6 8 8 8 10 11 11 7 7 7 6 6 7 7 8 10 7 6 5 3
12 12 13 13 13 11 7 6 7 7 9 9 8 6 6 7 9 9 8 6 6 7 6 5 5 6 6 7 9 10 5 6 5 4 4 5 7 8 10 7 7 6 5
12 13 12 11 11 9 5 7 8 10 8 5 4 5 6 6 7 6 5 5 5 5 5 5 4 4 4 5 8 9 6 6 5 4 4 4 7 8 8 7 5 7 6
12 11 11 11 9 7 5 7 9 8 5 4 4 5 4 4 4 5 5 5 6 6 6 5 4 3 3 4 6 9 9 7 5 5 4 4 8 8 7 6 6 8 7
11 10 10 11 9 7 5 8 8 5 4 3 4 3 3 3 4 5 6 6 6 6 6 6 6 4 3 3 5 6 8 8 5 4 6 7 8 7 5 6 8 6 4
10 9 9 9 9 8 7 7 7 4 3 4 4 3 3 3 3 4 4 5 6 6 6 6 6 5 4 4 4 4 4 5 5 4 5 8 8 6 6 5 5 3 3
9 8 8 8 9 9 8 7 6 4 4 3 3 3 3 3 3 3 3 4 3 4 6 5 5 6 5 6 7 6 5 5 5 6 4 4 4 4 4 4 3 3 3
9 8 8 8 9 8 8 7 6 4 3 3 2 2 3 3 3 3 2 3 3 4 5 5 5 3 4 8 10 9 8 9 11 6 5 5 5 5 5 4 4 3 3
Wind_Direction
247 241 231 222 217 215 214 212 210 208 204 203 205 207 211 212 214 216 215 213 211 208 211 213 212 208 213 214 213 214 216 218 212 219 235 239 236 236 232 229 228 224 223
248 240 233 223 217 216 214 214 214 210 206 207 207 210 212 215 216 215 217 216 213 211 210 213 213 210 215 217 215 213 216 214 204 214 227 246 233 225 227 225 227 229 223
247 244 236 229 222 219 217 214 213 212 210 209 208 207 211 216 214 215 216 215 214 213 213 214 215 213 214 217 215 212 216 217 210 218 219 230 241 229 210 221 224 226 226
243 244 241 236 228 224 220 218 217 214 212 208 208 207 208 213 216 216 215 214 213 215 215 216 215 215 214 218 217 215 217 220 218 214 229 241 259 249 247 214 221 225 229
241 243 241 240 237 229 223 220 219 217 214 210 210 211 217 221 222 218 217 214 211 214 216 217 216 217 217 219 218 214 215 218 222 216 212 226 237 243 253 258 236 223 228
241 243 244 242 241 234 224 222 221 220 216 213 212 214 217 219 220 219 216 214 213 212 215 216 217 218 219 219 219 217 216 218 223 224 219 215 218 220 228 243 250 249 239
241 243 243 241 239 235 228 223 222 222 218 215 215 217 219 220 221 221 220 217 215 213 214 212 216 218 220 220 218 218 220 220 222 224 225 225 230 233 234 242 251 256 255
244 245 246 245 242 238 233 227 225 226 221 217 218 219 220 221 224 223 222 219 219 218 216 212 215 218 220 221 219 220 222 222 223 227 228 230 230 231 232 239 249 258 257
250 249 250 249 248 243 236 231 228 227 224 221 220 220 220 221 223 223 223 223 222 220 217 214 214 217 219 220 220 221 222 222 225 228 229 231 233 232 231 232 234 245 260
254 254 255 255 253 249 244 238 234 231 228 225 223 222 221 222 224 224 223 222 222 220 217 216 215 216 217 218 220 222 224 224 225 226 229 231 232 233 231 231 232 234 248
261 263 263 262 261 259 252 243 237 235 232 228 226 224 224 223 224 224 225 224 224 221 219 216 215 215 216 216 218 221 222 225 228 226 228 232 231 232 231 229 229 231 235
276 277 275 272 268 262 255 247 240 235 233 230 228 227 227 225 224 225 225 224 224 221 219 217 216 216 217 216 217 221 222 225 228 228 228 231 230 231 231 230 230 232 231
287 284 282 277 272 266 259 254 247 241 236 230 228 228 227 225 225 225 225 223 222 222 219 217 216 217 217 217 219 221 223 225 228 228 228 230 228 231 230 230 232 233 231
288 287 285 282 277 270 265 261 257 250 242 234 229 228 227 225 226 226 224 223 221 221 219 217 218 218 217 218 217 220 224 227 228 229 229 230 229 231 230 230 232 231 232
288 287 286 284 282 276 270 265 262 255 241 235 233 231 228 227 225 224 223 222 220 219 218 216 217 216 216 215 213 215 221 225 228 228 229 230 229 229 228 226 226 224 231
288 289 287 284 280 277 273 267 262 255 238 234 235 234 228 223 221 220 218 215 216 216 215 214 213 214 213 207 205 209 217 221 225 229 228 227 223 227 227 229 228 224 227
292 292 290 288 285 282 276 270 266 260 239 235 236 230 223 222 220 215 213 214 214 211 212 214 213 215 215 204 202 206 215 220 223 225 225 225 221 219 224 224 227 231 230
299 299 297 293 289 285 279 272 265 251 242 240 239 231 219 220 216 210 214 216 210 208 211 212 212 215 215 202 202 203 214 222 222 220 217 216 215 210 205 207 213 216 221
300 299 298 294 290 286 282 273 261 250 243 242 238 231 220 214 210 212 214 212 206 207 208 204 205 209 211 198 197 194 208 217 221 217 212 210 213 206 197 195 199 201 215
301 300 299 296 291 290 288 271 261 251 245 243 238 228 217 211 213 214 212 206 200 204 193 194 201 203 207 192 190 190 202 211 210 203 205 210 208 199 192 195 192 199 200
303 305 304 299 296 298 286 265 262 255 256 249 234 224 216 213 212 206 197 186 184 183 185 187 191 197 199 193 190 189 197 203 201 199 200 199 193 194 192 192 197 196 173
310 312 307 303 306 310 292 270 265 272 276 249 234 227 215 209 197 185 183 177 174 177 183 181 187 194 190 194 196 194 198 191 191 195 190 186 182 183 184 188 180 165 153
310 312 308 306 311 316 299 275 279 287 274 254 246 235 208 196 187 183 183 178 177 185 188 186 191 189 181 181 183 187 189 188 187 178 170 165 166 164 166 167 159 153 152
313 313 313 310 313 319 312 295 298 293 261 244 244 225 202 193 182 183 185 185 187 191 191 190 191 183 178 180 173 171 169 169 165 156 147 147 147 141 133 138 143 146 153
315 315 311 308 308 314 315 316 311 296 269 252 240 223 206 190 184 183 180 185 195 193 186 188 181 180 191 191 175 169 174 172 162 145 136 139 145 149 148 139 136 137 141
318 316 314 312 312 316 317 321 317 304 276 264 247 225 209 191 184 172 145 110 137 139 156 155 157 164 161 159 170 172 168 160 153 145 154 162 165 169 167 161 154 154 159